Find Starlink 1269

NORAD ID: 45197 Int'l Des: 2020-012 Owner: SPXS Country: US Constellation: starlink operational
LEOCIRCULAR

現在のビュー

3D地球を読み込み中...

About Starlink 1269

Starlink 1269 (NORAD 45197) is a starlink constellation satellite (v1.0) launched Feb 17, 2020 by SPXS of US. It operates in LEO, CIRCULAR orbit with a mass of 260.00 kg.

次回通過

Passes for default location (London). Set your location on the main map for personalized predictions.

高度履歴

Loading altitude history...

軌道要素

1 45197U 20012V 26262.48935263 .00045795 00000-0 10144-2 0 9991
2 45197 53.1507 211.7230 0003060 68.0625 292.0706 15.43344471364691
Epoch: Sep 19, 2026 • Age: 21 hours

現在のステータス

高度 439.6 km
遠地点 / 近地点 N/A
速度 7.65 km/s
衛星直下点 46.88°N, 150.97°W
打ち上げ日 Feb 17, 2020
運用期間 6.5 years
タイプ internet

技術仕様

分類 Payload
質量 260.00 kg
乾燥質量 248.00 kg
長さ 0.20 m
スパン 9.00 m
形状 ? Box + pan
製造者 SPXS
バスタイプ Starlink
フェーズステータス In Orbit
所有者/国 SPXS/US

Most Searched